Ainsworth, NE

12:00 AM CDT on July 21, 2017 (GMT -0500)
Ainsworth Municipal

Weather History for KANW - March, 2014

Change the Weather History Date:

Friday, March 14, 2014

  Actual Average Record
Temperature  
Mean Temperature 46 °F -  
Max Temperature 60 °F 42 °F 78 °F (2003)
Min Temperature 31 °F 23 °F 5 °F (1997)
Degree Days  
Heating Degree Days 20    
Moisture  
Dew Point 24 °F    
Average Humidity 47    
Maximum Humidity 83    
Minimum Humidity 21    
Precipitation  
Precipitation 0.00 in - - ()
Sea Level Pressure  
Sea Level Pressure 29.87 in    
Wind  
Wind Speed 11 mph (NW)    
Max Wind Speed 17 mph    
Max Gust Speed 24 mph    
Visibility 10 miles    
Events      
Averages and records for this station are not official NWS values.
T = Trace of Precipitation, MM = Missing Value Source: NWS Daily Summary

Daily Weather History Graph

Daily Weather History Graph

Search for Another Location

Airport or City:

Trip Planner

Search our weather history database for the weather conditions in past years. The results will help you decide how hot, cold, wet, or windy it might be!

Date:

Astronomy

Mar. 14, 2014 Rise Set
Actual Time 7:53 AM CDT 7:45 PM CDT
Civil Twilight 7:25 AM CDT 8:13 PM CDT
Nautical Twilight 6:52 AM CDT 8:46 PM CDT
Astronomical Twilight 6:19 AM CDT 9:19 PM CDT
Moon 6:07 PM CDT (3/14) 6:36 AM CDT (3/14)
Length of Visible Light 12h 47m
Length of Day
11h 51m
Waxing Gibbous, 96% of the Moon is Illuminated
Mar 14
Waxing Gibbous
Mar 16
Full
Mar 23
Last Quarter
Mar 30
New
Apr 7
First Quarter

Hourly Weather History & Observations

Time (CDT) Temp. Windchill Dew Point Humidity Pressure Visibility Wind Dir Wind Speed Gust Speed Precip Events Conditions
12:15 AM 47.1 °F - 26.6 °F 45% 29.77 in 10.0 mi NNW 12.7 mph - N/A   Scattered Clouds
12:35 AM 46.6 °F - 26.6 °F 46% 29.78 in 10.0 mi NNW 11.5 mph - N/A   Scattered Clouds
12:55 AM 46.4 °F 40.7 °F 27.5 °F 48% 29.78 in 10.0 mi NNW 12.7 mph - N/A   Clear
1:15 AM 45.5 °F 39.2 °F 28.0 °F 51% 29.80 in 10.0 mi NW 13.8 mph - N/A   Scattered Clouds
1:35 AM 46.4 °F 41.1 °F 27.9 °F 48% 29.80 in 10.0 mi NW 11.5 mph - N/A   Mostly Cloudy
1:55 AM 46.9 °F - 26.6 °F 45% 29.82 in 10.0 mi NW 12.7 mph - N/A   Mostly Cloudy
2:15 AM 46.0 °F 39.9 °F 26.6 °F 47% 29.83 in 10.0 mi NW 13.8 mph - N/A   Scattered Clouds
2:35 AM 44.1 °F 37.7 °F 27.5 °F 52% 29.83 in 10.0 mi NW 12.7 mph - N/A   Clear
2:55 AM 42.4 °F 35.3 °F 27.5 °F 56% 29.84 in 10.0 mi NW 13.8 mph - N/A   Clear
3:15 AM 41.9 °F 35.4 °F 27.5 °F 57% 29.85 in 10.0 mi NW 11.5 mph - N/A   Clear
3:35 AM 41.5 °F 34.2 °F 27.9 °F 58% 29.85 in 10.0 mi NW 13.8 mph - N/A   Clear
3:55 AM 41.0 °F 33.5 °F 28.2 °F 60% 29.87 in 10.0 mi NW 13.8 mph 20.7 mph N/A   Clear
4:15 AM 40.1 °F 31.6 °F 28.2 °F 63% 29.87 in 10.0 mi NW 16.1 mph 20.7 mph N/A   Clear
4:35 AM 39.9 °F 32.5 °F 28.2 °F 63% 29.87 in 10.0 mi NW 12.7 mph - N/A   Clear
4:55 AM 39.4 °F 30.4 °F 28.4 °F 65% 29.87 in 10.0 mi NW 17.3 mph - N/A   Clear
5:15 AM 38.3 °F 30.5 °F 28.2 °F 67% 29.88 in 10.0 mi NW 12.7 mph - N/A   Clear
5:35 AM 37.4 °F 28.9 °F 28.2 °F 69% 29.89 in 10.0 mi NW 13.8 mph - N/A   Clear
5:55 AM 36.5 °F 29.7 °F 27.9 °F 71% 29.90 in 10.0 mi NW 9.2 mph - N/A   Clear
6:15 AM 35.6 °F 28.6 °F 27.7 °F 73% 29.90 in 10.0 mi WNW 9.2 mph - N/A   Clear
6:35 AM 34.5 °F 27.3 °F 27.3 °F 75% 29.90 in 10.0 mi West 9.2 mph - N/A   Clear
6:55 AM 33.8 °F 27.0 °F 27.3 °F 77% 29.91 in 10.0 mi WNW 8.1 mph - N/A   Clear
7:15 AM 33.6 °F 26.2 °F 27.1 °F 77% 29.91 in 10.0 mi West 9.2 mph - N/A   Clear
7:35 AM 32.2 °F 25.8 °F 26.8 °F 80% 29.91 in 10.0 mi West 6.9 mph - N/A   Clear
7:55 AM 32.0 °F 25.6 °F 26.6 °F 80% 29.91 in 10.0 mi West 6.9 mph - N/A   Clear
8:15 AM 31.1 °F 23.7 °F 26.6 °F 83% 29.92 in 10.0 mi West 8.1 mph - N/A   Clear
8:35 AM 32.0 °F 25.6 °F 27.5 °F 83% 29.92 in 10.0 mi West 6.9 mph - N/A   Clear
8:55 AM 34.0 °F 28.8 °F 28.4 °F 80% 29.94 in 10.0 mi West 5.8 mph - N/A   Clear
9:15 AM 36.3 °F 32.5 °F 28.6 °F 74% 29.94 in 10.0 mi West 4.6 mph - N/A   Clear
9:35 AM 39.7 °F 33.7 °F 28.2 °F 63% 29.94 in 10.0 mi WNW 9.2 mph - N/A   Clear
9:55 AM 41.4 °F 34.0 °F 25.9 °F 54% 29.95 in 10.0 mi NW 13.8 mph 18.4 mph N/A   Clear
10:15 AM 42.8 °F 35.8 °F 23.7 °F 47% 29.95 in 10.0 mi WNW 13.8 mph 19.6 mph N/A   Clear
10:35 AM 44.1 °F 37.4 °F 22.8 °F 43% 29.95 in 10.0 mi WNW 13.8 mph 20.7 mph N/A   Clear
10:55 AM 45.0 °F 37.9 °F 21.4 °F 39% 29.95 in 10.0 mi NW 16.1 mph 21.9 mph N/A   Clear
11:15 AM 46.0 °F 39.6 °F 19.9 °F 35% 29.96 in 10.0 mi NW 15.0 mph 20.7 mph N/A   Clear
11:35 AM 48.0 °F - 20.3 °F 33% 29.95 in 10.0 mi NW 13.8 mph 21.9 mph N/A   Clear
11:55 AM 48.0 °F - 19.0 °F 32% 29.95 in 10.0 mi WNW 11.5 mph 20.7 mph N/A   Clear
12:15 PM 49.8 °F - 18.0 °F 28% 29.95 in 10.0 mi NW 15.0 mph 19.6 mph N/A   Clear
12:35 PM 50.7 °F - 17.1 °F 26% 29.94 in 10.0 mi NW 15.0 mph 24.2 mph N/A   Clear
12:55 PM 51.6 °F - 16.2 °F 25% 29.94 in 10.0 mi WNW 11.5 mph 21.9 mph N/A   Clear
1:15 PM 52.2 °F - 15.6 °F 24% 29.94 in 10.0 mi WNW 15.0 mph 23.0 mph N/A   Clear
1:35 PM 53.1 °F - 16.5 °F 24% 29.93 in 10.0 mi West 9.2 mph - N/A   Clear
1:55 PM 53.8 °F - 16.7 °F 23% 29.92 in 10.0 mi WNW 12.7 mph 17.3 mph N/A   Clear
2:15 PM 54.7 °F - 17.4 °F 23% 29.92 in 10.0 mi West 13.8 mph 18.4 mph N/A   Clear
2:35 PM 55.9 °F - 18.3 °F 23% 29.91 in 10.0 mi West 13.8 mph 18.4 mph N/A   Clear
2:55 PM 56.5 °F - 18.5 °F 23% 29.90 in 10.0 mi West 5.8 mph - N/A   Clear
3:15 PM 56.8 °F - 17.1 °F 21% 29.88 in 10.0 mi WNW 4.6 mph - N/A   Clear
3:35 PM 57.7 °F - 17.2 °F 21% 29.88 in 10.0 mi West 11.5 mph - N/A   Clear
3:55 PM 58.1 °F - 17.6 °F 21% 29.87 in 10.0 mi WSW 6.9 mph - N/A   Clear
4:15 PM 59.7 °F - 18.9 °F 21% 29.87 in 10.0 mi West 12.7 mph - N/A   Clear
4:35 PM 59.2 °F - 19.2 °F 21% 29.87 in 10.0 mi WNW 10.4 mph 18.4 mph N/A   Clear
4:55 PM 60.1 °F - 19.6 °F 21% 29.85 in 10.0 mi West 6.9 mph 16.1 mph N/A   Clear
5:15 PM 60.4 °F - 21.2 °F 22% 29.85 in 10.0 mi WNW 10.4 mph - N/A   Clear
5:35 PM 60.8 °F - 21.2 °F 22% 29.84 in 10.0 mi WNW 10.4 mph - N/A   Clear
5:55 PM 60.3 °F - 21.0 °F 22% 29.83 in 10.0 mi NW 3.5 mph - N/A   Clear
6:15 PM 59.9 °F - 21.0 °F 22% 29.83 in 10.0 mi NNE 3.5 mph - N/A   Clear
6:35 PM 59.5 °F - 20.8 °F 22% 29.83 in 10.0 mi Calm Calm - N/A   Clear
6:55 PM 58.8 °F - 21.4 °F 24% 29.83 in 10.0 mi Calm Calm - N/A   Clear
7:15 PM 55.6 °F - 24.6 °F 30% 29.83 in 10.0 mi East 4.6 mph - N/A   Clear
7:35 PM 51.8 °F - 25.0 °F 35% 29.83 in 10.0 mi East 5.8 mph - N/A   Clear
7:55 PM 49.1 °F - 24.6 °F 38% 29.83 in 10.0 mi East 8.1 mph - N/A   Clear
8:15 PM 45.7 °F 41.0 °F 25.0 °F 44% 29.83 in 10.0 mi East 9.2 mph - N/A   Clear
8:35 PM 44.2 °F 39.7 °F 25.5 °F 48% 29.83 in 10.0 mi ESE 8.1 mph - N/A   Clear
8:55 PM 43.7 °F 38.6 °F 25.3 °F 48% 29.82 in 10.0 mi ESE 9.2 mph - N/A   Clear
9:15 PM 43.3 °F 38.6 °F 24.4 °F 47% 29.82 in 10.0 mi ESE 8.1 mph - N/A   Clear
9:35 PM 40.1 °F 34.7 °F 25.2 °F 55% 29.82 in 10.0 mi ESE 8.1 mph - N/A   Clear
9:55 PM 39.7 °F 34.3 °F 24.6 °F 55% 29.82 in 10.0 mi ESE 8.1 mph - N/A   Clear
10:15 PM 38.3 °F 33.2 °F 23.9 °F 56% 29.82 in 10.0 mi ESE 6.9 mph - N/A   Clear
10:35 PM 37.9 °F 32.7 °F 23.9 °F 57% 29.82 in 10.0 mi ESE 6.9 mph - N/A   Clear
10:55 PM 36.7 °F 29.9 °F 24.4 °F 61% 29.82 in 10.0 mi East 9.2 mph - N/A   Clear
11:15 PM 37.4 °F 31.4 °F 24.4 °F 60% 29.81 in 10.0 mi East 8.1 mph - N/A   Clear
11:35 PM 37.0 °F 31.0 °F 24.3 °F 60% 29.81 in 10.0 mi East 8.1 mph - N/A   Clear
11:55 PM 34.7 °F 27.5 °F 23.9 °F 65% 29.80 in 10.0 mi East 9.2 mph - N/A   Clear